Retour au catalogue

CENTAURI-9

ActifRadio amateurSSO
NORAD 69924·PAYLOAD·🇯🇵 Japan

Lancé Jul 7, 2026 depuis Vandenberg Space Force Base

Loading…

Prochains Passages (prochaines 24 heures)

TLE

FraisSource: Space-Track

Époque: Sep 14, 2026, 13:06 UTC

1 69924U 26156BH  26257.54624724  .00000934  00000-0  97088-4 0  9998
2 69924  97.7442 156.8720 0006843 287.4217  72.6253 14.92213529 10325

Suivez CENTAURI-9 en temps réel avec AllMySat

Download on the App Store